When you browse on this site, cookies collect data to enhance your experience and personalize the content and advertising you see.
Visit our Privacy Policy to learn more. By continuing to use the site, you agree to this use of cookies and data.
  • Em Portugal
  • Lista de países
  • Para 7 dias
  • Temperatura da água
  • Mapas de satélite
  • Mapa do tempo
  • Widgets de tempo
  • user-avatar
    Iniciar Sessão

    Previsão horária em Praca

    Hoje, 20 Janeiro, Domingo

    Tempo Temperatura Precipitação Vento Pressão Humidade
    00:00 -7°C° 0 mm 5 m/s 746 mmHg 91%
    01:00 -7°C° 0 mm 5 m/s 746 mmHg 92%
    02:00 -7°C° 0 mm 5 m/s 746 mmHg 91%
    03:00 -8°C° 0 mm 5 m/s 745 mmHg 92%
    04:00 -8°C° 0 mm 5 m/s 745 mmHg 92%
    05:00 -8°C° 0 mm 5 m/s 745 mmHg 93%
    06:00 -8°C° 0 mm 5 m/s 744 mmHg 93%
    07:00 -10°C° 0 mm 5 m/s 744 mmHg 94%
    08:00 -10°C° 0 mm 5 m/s 744 mmHg 94%
    09:00 -9°C° 0 mm 6 m/s 744 mmHg 94%
    10:00 -9°C° 0 mm 6 m/s 744 mmHg 93%
    11:00 -9°C° 0 mm 6 m/s 744 mmHg 93%
    12:00 -8°C° 0 mm 6 m/s 743 mmHg 92%
    13:00 -8°C° 0 mm 6 m/s 743 mmHg 92%
    14:00 -6°C° 0 mm 6 m/s 743 mmHg 91%
    15:00 -6°C° 0.2 mm 5 m/s 743 mmHg 92%
    16:00 -6°C° 0.2 mm 5 m/s 743 mmHg 92%
    17:00 -6°C° 0.2 mm 5 m/s 743 mmHg 93%
    18:00 -5°C° 0.2 mm 4 m/s 743 mmHg 94%
    19:00 -5°C° 0.2 mm 3 m/s 743 mmHg 94%
    20:00 -5°C° 0.2 mm 3 m/s 743 mmHg 95%
    21:00 -6°C° 0 mm 3 m/s 743 mmHg 95%
    22:00 -7°C° 0 mm 3 m/s 743 mmHg 95%
    23:00 -8°C° 0 mm 3 m/s 743 mmHg 95%

    Amanhã, 21 Janeiro, Segunda-feira

    Tempo Temperatura Precipitação Vento Pressão Humidade
    00:00 -9°C° 0 mm 3 m/s 744 mmHg 93%
    01:00 -10°C° 0 mm 3 m/s 744 mmHg 92%
    02:00 -12°C° 0 mm 3 m/s 744 mmHg 91%
    03:00 -12°C° 0 mm 3 m/s 744 mmHg 91%
    04:00 -12°C° 0 mm 3 m/s 744 mmHg 91%
    05:00 -12°C° 0 mm 3 m/s 745 mmHg 91%
    06:00 -13°C° 0 mm 3 m/s 745 mmHg 92%
    07:00 -13°C° 0 mm 3 m/s 745 mmHg 93%
    08:00 -13°C° 0 mm 3 m/s 746 mmHg 94%
    09:00 -12°C° 0 mm 3 m/s 746 mmHg 92%
    10:00 -10°C° 0 mm 3 m/s 746 mmHg 91%
    11:00 -9°C° 0 mm 3 m/s 747 mmHg 90%
    12:00 -8°C° 0 mm 3 m/s 747 mmHg 90%
    13:00 -8°C° 0 mm 3 m/s 747 mmHg 90%
    14:00 -7°C° 0 mm 3 m/s 747 mmHg 89%
    15:00 -7°C° 0 mm 2 m/s 747 mmHg 91%
    16:00 -8°C° 0 mm 2 m/s 746 mmHg 92%
    17:00 -9°C° 0 mm 2 m/s 746 mmHg 93%
    18:00 -9°C° 0 mm 2 m/s 746 mmHg 93%
    19:00 -9°C° 0 mm 2 m/s 746 mmHg 94%
    20:00 -9°C° 0 mm 2 m/s 746 mmHg 94%
    21:00 -9°C° 0 mm 2 m/s 746 mmHg 94%
    22:00 -9°C° 0 mm 2 m/s 746 mmHg 95%
    23:00 -8°C° 0 mm 2 m/s 746 mmHg 95%

    Depois de amanhã, 22 Janeiro, Terça-feira

    Tempo Temperatura Precipitação Vento Pressão Humidade
    00:00 -9°C° 0.3 mm 3 m/s 745 mmHg 95%
    01:00 -8°C° 0.3 mm 3 m/s 745 mmHg 96%
    02:00 -8°C° 0.3 mm 3 m/s 745 mmHg 96%
    03:00 -7°C° 0.2 mm 3 m/s 744 mmHg 96%
    04:00 -6°C° 0.2 mm 3 m/s 744 mmHg 96%
    05:00 -6°C° 0.2 mm 3 m/s 744 mmHg 95%
    06:00 -6°C° 0.1 mm 3 m/s 744 mmHg 96%
    07:00 -6°C° 0.1 mm 3 m/s 744 mmHg 96%
    08:00 -7°C° 0.1 mm 3 m/s 744 mmHg 96%
    09:00 -6°C° 0 mm 2 m/s 744 mmHg 95%
    10:00 -6°C° 0 mm 2 m/s 744 mmHg 95%
    11:00 -6°C° 0 mm 2 m/s 744 mmHg 94%
    12:00 -5°C° 0 mm 2 m/s 744 mmHg 93%
    13:00 -5°C° 0 mm 2 m/s 744 mmHg 92%
    14:00 -5°C° 0 mm 2 m/s 744 mmHg 91%
    15:00 -4°C° 0 mm 1 m/s 744 mmHg 92%
    16:00 -6°C° 0 mm 1 m/s 744 mmHg 93%
    17:00 -7°C° 0 mm 1 m/s 744 mmHg 93%
    18:00 -7°C° 0 mm 1 m/s 744 mmHg 94%
    19:00 -8°C° 0 mm 1 m/s 744 mmHg 95%
    20:00 -8°C° 0 mm 1 m/s 744 mmHg 96%
    21:00 -9°C° 0 mm 1 m/s 744 mmHg 96%
    22:00 -10°C° 0 mm 2 m/s 744 mmHg 97%
    23:00 -10°C° 0 mm 2 m/s 744 mmHg 97%

    23 Janeiro, Quarta-feira

    Tempo Temperatura Precipitação Vento Pressão Humidade
    00:00 -10°C° 0 mm 2 m/s 744 mmHg 97%
    01:00 -9°C° 0 mm 2 m/s 744 mmHg 97%
    02:00 -9°C° 0 mm 2 m/s 744 mmHg 96%
    03:00 -8°C° 0 mm 2 m/s 744 mmHg 96%
    04:00 -8°C° 0 mm 2 m/s 744 mmHg 95%
    05:00 -8°C° 0 mm 2 m/s 744 mmHg 94%
    06:00 -9°C° 0 mm 2 m/s 744 mmHg 95%
    07:00 -12°C° 0 mm 3 m/s 744 mmHg 96%
    08:00 -13°C° 0 mm 3 m/s 744 mmHg 97%
    09:00 -13°C° 0 mm 3 m/s 744 mmHg 95%
    10:00 -12°C° 0 mm 3 m/s 744 mmHg 93%
    11:00 -12°C° 0 mm 4 m/s 744 mmHg 92%
    12:00 -10°C° 0 mm 3 m/s 744 mmHg 92%
    13:00 -10°C° 0 mm 3 m/s 744 mmHg 92%
    14:00 -9°C° 0 mm 3 m/s 744 mmHg 92%
    15:00 -10°C° 0 mm 3 m/s 744 mmHg 93%
    16:00 -10°C° 0 mm 3 m/s 744 mmHg 94%
    17:00 -10°C° 0 mm 3 m/s 743 mmHg 95%
    18:00 -10°C° 0 mm 3 m/s 743 mmHg 95%
    19:00 -10°C° 0 mm 3 m/s 744 mmHg 94%
    20:00 -10°C° 0 mm 3 m/s 744 mmHg 94%
    21:00 -10°C° 0 mm 3 m/s 743 mmHg 94%
    22:00 -12°C° 0 mm 3 m/s 743 mmHg 94%
    23:00 -12°C° 0 mm 3 m/s 743 mmHg 94%

    24 Janeiro, Quinta-feira

    Tempo Temperatura Precipitação Vento Pressão Humidade
    00:00 -12°C° 0 mm 3 m/s 743 mmHg 94%
    01:00 -12°C° 0 mm 3 m/s 743 mmHg 94%
    02:00 -10°C° 0 mm 3 m/s 743 mmHg 94%
    03:00 -10°C° 0 mm 3 m/s 743 mmHg 94%
    04:00 -10°C° 0 mm 3 m/s 742 mmHg 94%
    05:00 -10°C° 0 mm 3 m/s 742 mmHg 94%
    06:00 -10°C° 0 mm 3 m/s 742 mmHg 94%
    07:00 -9°C° 0 mm 3 m/s 742 mmHg 94%
    08:00 -9°C° 0 mm 3 m/s 742 mmHg 94%
    09:00 -9°C° 0.1 mm 3 m/s 742 mmHg 94%
    10:00 -9°C° 0.1 mm 3 m/s 742 mmHg 94%
    11:00 -8°C° 0.1 mm 3 m/s 742 mmHg 94%
    12:00 -8°C° 0.3 mm 3 m/s 742 mmHg 94%
    13:00 -8°C° 0.3 mm 3 m/s 742 mmHg 94%
    14:00 -6°C° 0.3 mm 2 m/s 741 mmHg 94%
    15:00 -6°C° 0.1 mm 2 m/s 741 mmHg 94%
    16:00 -6°C° 0.1 mm 2 m/s 741 mmHg 95%
    17:00 -7°C° 0.1 mm 3 m/s 741 mmHg 95%
    18:00 -7°C° 0.1 mm 2 m/s 741 mmHg 95%
    19:00 -7°C° 0.1 mm 2 m/s 741 mmHg 95%
    20:00 -7°C° 0.1 mm 2 m/s 741 mmHg 95%
    21:00 -7°C° 0 mm 2 m/s 741 mmHg 95%
    22:00 -7°C° 0 mm 2 m/s 741 mmHg 96%
    23:00 -6°C° 0 mm 1 m/s 741 mmHg 96%

    25 Janeiro, Sexta-feira

    Tempo Temperatura Precipitação Vento Pressão Humidade
    00:00 -6°C° 0 mm 1 m/s 741 mmHg 96%
    01:00 -4°C° 0 mm 1 m/s 741 mmHg 96%
    02:00 -4°C° 0 mm 1 m/s 741 mmHg 96%
    03:00 -4°C° 0 mm 1 m/s 741 mmHg 96%
    04:00 -4°C° 0 mm 1 m/s 741 mmHg 96%
    05:00 -4°C° 0 mm 1 m/s 741 mmHg 96%
    06:00 -4°C° 0.1 mm 1 m/s 741 mmHg 96%
    07:00 -4°C° 0.1 mm 1 m/s 741 mmHg 96%
    08:00 -4°C° 0.1 mm 1 m/s 741 mmHg 96%
    09:00 -4°C° 0 mm 1 m/s 742 mmHg 95%
    10:00 -3°C° 0 mm 1 m/s 742 mmHg 94%
    11:00 -3°C° 0 mm 1 m/s 742 mmHg 94%
    12:00 -3°C° 0.1 mm 1 m/s 742 mmHg 94%
    13:00 -4°C° 0.1 mm 2 m/s 742 mmHg 93%
    14:00 -4°C° 0.1 mm 2 m/s 742 mmHg 93%
    15:00 -5°C° 0 mm 2 m/s 742 mmHg 94%
    16:00 -5°C° 0 mm 2 m/s 742 mmHg 94%
    17:00 -6°C° 0 mm 3 m/s 742 mmHg 94%
    18:00 -7°C° 0 mm 3 m/s 742 mmHg 94%
    19:00 -7°C° 0 mm 3 m/s 742 mmHg 94%
    20:00 -7°C° 0 mm 3 m/s 743 mmHg 94%
    21:00 -7°C° 0 mm 3 m/s 743 mmHg 94%
    22:00 -8°C° 0 mm 3 m/s 743 mmHg 94%
    23:00 -9°C° 0 mm 4 m/s 743 mmHg 94%
    Mostrar mais